1546084801.02,32420,0.0,0.0,-8.77,-9.23,-9.19,0,*56
1546084802.25,32421,0.0,0.0,-8.77,-9.31,-9.23,0,*5D
1546084803.45,32422,0.0,0.0,-8.75,-9.19,-9.19,0,*5F
1546084804.65,32423,0.0,0.0,-8.75,-9.27,-9.19,0,*53
1546084805.88,32424,0.0,0.0,-8.77,-9.31,-9.23,0,*58
1546084807.1,32425,0.0,0.0,-8.75,-9.27,-9.15,0,*59
1546084808.3,32426,0.0,0.0,-8.75,-9.19,-9.19,0,*5B
1546084809.55,32427,0.0,0.0,-8.73,-9.19,-9.15,0,*50
1546084810.78,32428,0.0,0.0,-8.73,-9.27,-9.19,0,*5E
1546084811.97,32429,0.0,0.0,-8.75,-9.19,-9.19,0,*54
1546084813.17,32430,0.0,0.0,-8.75,-9.27,-9.19,0,*51
1546084814.37,32431,0.0,0.0,-8.75,-9.19,-9.19,0,*5D
1546084815.57,32432,0.0,0.0,-8.75,-9.27,-9.19,0,*53
1546084816.8,32433,0.0,0.0,-8.77,-9.23,-9.19,0,*54
1546084818.0,32434,0.0,0.0,-8.75,-9.27,-9.19,0,*55
1546084819.2,32435,0.0,0.0,-8.75,-9.27,-9.19,0,*54
1546084820.43,32436,0.0,0.0,-8.73,-9.27,-9.19,0,*51
1546084821.65,32437,0.0,0.0,-8.73,-9.19,-9.19,0,*5D
1546084822.88,32438,0.0,0.0,-8.73,-9.19,-9.19,0,*52
1546084824.1,32439,0.0,0.0,-8.73,-9.19,-9.19,0,*53
1546084825.36,32440,0.0,0.0,-8.71,-9.15,-9.15,0,*5F
1546084826.59,32441,0.0,0.0,-8.73,-9.19,-9.19,0,*5C
1546084827.81,32442,0.0,0.0,-8.73,-9.19,-9.19,0,*5F
1546084829.07,32443,0.0,0.0,-8.71,-9.15,-9.15,0,*5C
1546084830.29,32444,0.0,0.0,-8.73,-9.27,-9.19,0,*54
1546084831.52,32445,0.0,0.0,-8.73,-9.19,-9.19,0,*58
1546084832.8,32446,0.0,0.0,-8.73,-9.15,-9.15,0,*5B
1546084834.03,32447,0.0,0.0,-8.73,-9.19,-9.19,0,*5A
1546084835.31,32448,0.0,0.0,-8.73,-9.15,-9.15,0,*55
1546084836.54,32449,0.0,0.0,-8.73,-9.19,-9.19,0,*54
1546084837.79,32450,0.0,0.0,-8.73,-9.15,-9.19,0,*50
1546084839.06,32451,0.0,0.0,-8.71,-9.15,-9.11,0,*5B
1546084840.29,32452,0.0,0.0,-8.71,-9.15,-9.23,0,*59
1546084841.57,32453,0.0,0.0,-8.73,-9.15,-9.15,0,*5F
1546084842.82,32454,0.0,0.0,-8.73,-9.19,-9.15,0,*54
1546084844.04,32455,0.0,0.0,-8.71,-9.23,-9.15,0,*5E
1546084845.3,32456,0.0,0.0,-8.71,-9.15,-9.15,0,*58
1546084846.56,32457,0.0,0.0,-8.71,-9.15,-9.11,0,*5D
1546084847.81,32458,0.0,0.0,-8.71,-9.11,-9.15,0,*52
1546084849.07,32459,0.0,0.0,-8.71,-9.15,-9.15,0,*57
1546084850.3,32460,0.0,0.0,-8.73,-9.19,-9.19,0,*5F
1546084851.52,32461,0.0,0.0,-8.73,-9.19,-9.27,0,*53
1546084852.78,32462,0.0,0.0,-8.73,-9.27,-9.15,0,*5C
1546084854.04,32463,0.0,0.0,-8.71,-9.15,-9.11,0,*5A
1546084855.29,32464,0.0,0.0,-8.71,-9.15,-9.15,0,*59
1546084856.55,32465,0.0,0.0,-8.71,-9.11,-9.15,0,*5C
1546084857.8,32466,0.0,0.0,-8.71,-9.11,-9.11,0,*5B
1546084859.06,32467,0.0,0.0,-8.71,-9.11,-9.11,0,*5A
1546084860.32,32468,0.0,0.0,-8.71,-9.15,-9.15,0,*55
1546084861.58,32469,0.0,0.0,-8.71,-9.15,-9.11,0,*50
1546084862.83,32470,0.0,0.0,-8.71,-9.11,-9.11,0,*5C
1546084864.09,32471,0.0,0.0,-8.71,-9.15,-9.11,0,*59
1546084865.35,32472,0.0,0.0,-8.71,-9.11,-9.15,0,*5A
1546084866.61,32473,0.0,0.0,-8.71,-9.15,-9.11,0,*5B
1546084867.86,32474,0.0,0.0,-8.71,-9.11,-9.11,0,*58
1546084869.12,32475,0.0,0.0,-8.71,-9.15,-9.11,0,*5D
1546084870.41,32476,0.0,0.0,-8.69,-9.15,-9.11,0,*57
1546084871.7,32477,0.0,0.0,-8.69,-9.15,-9.11,0,*56
1546084872.98,32478,0.0,0.0,-8.69,-9.15,-9.15,0,*5D
1546084874.26,32479,0.0,0.0,-8.69,-9.15,-9.11,0,*58
1546084875.55,32480,0.0,0.0,-8.69,-9.11,-9.15,0,*5E
1546084876.77,32481,0.0,0.0,-8.67,-9.23,-9.11,0,*54
1546084878.05,32482,0.0,0.0,-8.69,-9.11,-9.15,0,*5C
1546084879.31,32483,0.0,0.0,-8.71,-9.15,-9.15,0,*50
1546084880.54,32484,0.0,0.0,-8.71,-9.23,-9.11,0,*56
1546084881.82,32485,0.0,0.0,-8.69,-9.15,-9.11,0,*5B
1546084883.08,32486,0.0,0.0,-8.69,-9.23,-9.11,0,*5D
1546084884.33,32487,0.0,0.0,-8.69,-9.23,-9.15,0,*58
1546084885.56,32488,0.0,0.0,-8.67,-9.15,-9.05,0,*5D
1546084886.81,32489,0.0,0.0,-8.69,-9.23,-9.15,0,*56
1546084888.1,32490,0.0,0.0,-8.69,-9.15,-9.15,0,*5B
1546084889.38,32491,0.0,0.0,-8.69,-9.15,-9.11,0,*5E
1546084890.67,32492,0.0,0.0,-8.69,-9.15,-9.15,0,*59
1546084891.95,32493,0.0,0.0,-8.69,-9.11,-9.15,0,*5C
1546084893.23,32494,0.0,0.0,-8.69,-9.15,-9.15,0,*5F
1546084894.52,32495,0.0,0.0,-8.69,-9.15,-9.11,0,*5A
1546084895.8,32496,0.0,0.0,-8.69,-9.15,-9.11,0,*59
1546084897.03,32497,0.0,0.0,-8.67,-9.11,-9.05,0,*57
1546084898.32,32498,0.0,0.0,-8.69,-9.15,-9.11,0,*57
1546084899.6,32499,0.0,0.0,-8.69,-9.15,-9.11,0,*56
1546084900.89,32500,0.0,0.0,-8.69,-9.11,-9.11,0,*53
1546084902.17,32501,0.0,0.0,-8.69,-9.15,-9.15,0,*52
1546084903.46,32502,0.0,0.0,-8.69,-9.15,-9.11,0,*55
1546084904.69,32503,0.0,0.0,-8.67,-9.05,-9.11,0,*5B
1546084905.94,32504,0.0,0.0,-8.67,-9.11,-9.11,0,*59
1546084907.17,32505,0.0,0.0,-8.67,-9.05,-9.11,0,*5D
1546084908.46,32506,0.0,0.0,-8.69,-9.15,-9.11,0,*51
1546084909.72,32507,0.0,0.0,-8.67,-9.11,-9.11,0,*5A
1546084910.97,32508,0.0,0.0,-8.67,-9.11,-9.11,0,*55
1546084912.26,32509,0.0,0.0,-8.69,-9.15,-9.11,0,*5E
1546084913.54,32510,0.0,0.0,-8.69,-9.15,-9.11,0,*56
1546084914.78,32511,0.0,0.0,-8.67,-9.11,-9.05,0,*58
1546084916.0,32512,0.0,0.0,-8.67,-9.11,-9.05,0,*5B
1546084917.26,32513,0.0,0.0,-8.67,-9.11,-9.11,0,*5F
1546084918.52,32514,0.0,0.0,-8.67,-9.11,-9.11,0,*58
1546084919.77,32515,0.0,0.0,-8.67,-9.11,-9.11,0,*59
1546084921.03,32516,0.0,0.0,-8.67,-9.11,-9.11,0,*5A
1546084922.29,32517,0.0,0.0,-8.67,-9.11,-9.11,0,*5B
1546084923.54,32518,0.0,0.0,-8.67,-9.11,-9.11,0,*54
1546084924.82,32519,0.0,0.0,-8.69,-9.11,-9.15,0,*5F
1546084926.05,32520,0.0,0.0,-8.67,-9.11,-9.05,0,*5A
1546084927.31,32521,0.0,0.0,-8.67,-9.11,-9.11,0,*5E
1546084928.54,32522,0.0,0.0,-8.67,-9.05,-9.11,0,*58
1546084929.8,32523,0.0,0.0,-8.67,-9.11,-9.11,0,*5C
1546084931.05,32524,0.0,0.0,-8.67,-9.11,-9.11,0,*5B
1546084932.28,32525,0.0,0.0,-8.67,-9.11,-9.05,0,*5F
1546084933.51,32526,0.0,0.0,-8.67,-9.11,-9.05,0,*5C
1546084934.79,32527,0.0,0.0,-8.65,-9.11,-9.11,0,*5A
1546084936.02,32528,0.0,0.0,-8.67,-9.11,-9.05,0,*52
1546084937.31,32529,0.0,0.0,-8.65,-9.11,-9.11,0,*54
1546084938.56,32530,0.0,0.0,-8.65,-9.05,-9.11,0,*59
1546084939.84,32531,0.0,0.0,-8.65,-9.11,-9.11,0,*5D
1546084941.12,32532,0.0,0.0,-8.65,-9.11,-9.11,0,*5E
1546084942.4,32533,0.0,0.0,-8.65,-9.11,-9.11,0,*5F
1546084943.66,32534,0.0,0.0,-8.65,-9.11,-9.05,0,*5D
1546084944.94,32535,0.0,0.0,-8.65,-9.11,-9.11,0,*59
1546084946.19,32536,0.0,0.0,-8.65,-9.05,-9.11,0,*5F
1546084947.44,32537,0.0,0.0,-8.65,-9.11,-9.05,0,*5E
1546084948.72,32538,0.0,0.0,-8.65,-9.11,-9.11,0,*54
1546084949.98,32539,0.0,0.0,-8.65,-9.11,-9.05,0,*50
1546084951.23,32540,0.0,0.0,-8.65,-9.05,-9.11,0,*5E
1546084952.49,32541,0.0,0.0,-8.65,-9.11,-9.05,0,*5F
1546084953.69,32542,0.0,0.0,-8.63,-9.05,-9.01,0,*5B
1546084954.94,32543,0.0,0.0,-8.65,-9.19,-9.11,0,*50
1546084956.17,32544,0.0,0.0,-8.65,-9.05,-9.05,0,*5F
1546084957.4,32545,0.0,0.0,-8.65,-9.05,-9.05,0,*5E
1546084958.68,32546,0.0,0.0,-8.65,-9.11,-9.11,0,*5D
1546084959.96,32547,0.0,0.0,-8.65,-9.11,-9.11,0,*5C
1546084961.24,32548,0.0,0.0,-8.65,-9.11,-9.11,0,*53
1546084962.49,32549,0.0,0.0,-8.63,-9.11,-9.11,0,*54
1546084963.75,32550,0.0,0.0,-8.65,-9.11,-9.05,0,*5F
1546084965.03,32551,0.0,0.0,-8.65,-9.11,-9.11,0,*5B
1546084966.28,32552,0.0,0.0,-8.65,-9.11,-9.05,0,*5D
1546084967.49,32553,0.0,0.0,-8.63,-9.05,-9.05,0,*5F
1546084968.69,32554,0.0,0.0,-8.63,-9.05,-9.05,0,*58
1546084969.91,32555,0.0,0.0,-8.65,-9.05,-9.05,0,*5F
1546084971.14,32556,0.0,0.0,-8.65,-9.19,-9.05,0,*51
1546084972.34,32557,0.0,0.0,-8.63,-9.05,-9.01,0,*5F
1546084973.55,32558,0.0,0.0,-8.63,-9.05,-9.01,0,*50
1546084974.76,32559,0.0,0.0,-8.63,-9.01,-9.01,0,*55
1546084976.04,32560,0.0,0.0,-8.65,-9.11,-9.11,0,*59
1546084977.24,32561,0.0,0.0,-8.63,-9.05,-9.05,0,*5E
1546084978.44,32562,0.0,0.0,-8.63,-9.01,-9.05,0,*59
1546084979.65,32563,0.0,0.0,-8.63,-9.05,-9.01,0,*58
1546084980.93,32564,0.0,0.0,-8.65,-9.11,-9.11,0,*5D
1546084982.21,32565,0.0,0.0,-8.65,-9.11,-9.11,0,*5C
1546084983.42,32566,0.0,0.0,-8.63,-9.01,-9.01,0,*59
1546084984.7,32567,0.0,0.0,-8.65,-9.11,-9.11,0,*5E
1546084985.93,32568,0.0,0.0,-8.63,-9.15,-9.05,0,*56
1546084987.13,32569,0.0,0.0,-8.63,-9.05,-9.01,0,*52
1546084988.33,32570,0.0,0.0,-8.63,-9.05,-9.05,0,*5E
1546084989.53,32571,0.0,0.0,-8.63,-9.19,-9.01,0,*56
1546084990.79,32572,0.0,0.0,-8.65,-9.11,-9.05,0,*5F
1546084991.99,32573,0.0,0.0,-8.63,-9.05,-9.05,0,*5D
1546084993.19,32574,0.0,0.0,-8.63,-9.05,-9.05,0,*5A
1546084994.39,32575,0.0,0.0,-8.63,-9.05,-9.05,0,*5B
1546084995.62,32576,0.0,0.0,-8.63,-9.11,-9.05,0,*5D
1546084996.82,32577,0.0,0.0,-8.63,-9.05,-9.05,0,*59
1546084998.02,32578,0.0,0.0,-8.63,-9.05,-9.05,0,*56
1546084999.23,32579,0.0,0.0,-8.63,-9.05,-9.01,0,*53
1546085000.45,32580,0.0,0.0,-8.63,-9.05,-9.15,0,*50
1546085001.66,32581,0.0,0.0,-8.63,-9.01,-9.05,0,*54
1546085002.86,32582,0.0,0.0,-8.63,-9.01,-9.05,0,*57
1546085004.06,32583,0.0,0.0,-8.63,-9.05,-9.01,0,*56
1546085005.3,32584,0.0,0.0,-8.61,-9.01,-9.01,0,*57
1546085006.51,32585,0.0,0.0,-8.63,-9.05,-9.01,0,*50
1546085007.71,32586,0.0,0.0,-8.63,-9.01,-9.05,0,*53
1546085008.92,32587,0.0,0.0,-8.63,-9.01,-9.05,0,*52
1546085010.15,32588,0.0,0.0,-8.61,-9.05,-9.01,0,*5F
1546085011.38,32589,0.0,0.0,-8.61,-9.05,-9.01,0,*5E
1546085012.61,32590,0.0,0.0,-8.61,-9.05,-9.05,0,*52
1546085013.85,32591,0.0,0.0,-8.61,-9.01,-9.01,0,*53
1546085015.08,32592,0.0,0.0,-8.61,-9.05,-9.05,0,*50
1546085016.32,32593,0.0,0.0,-8.61,-9.05,-9.01,0,*55
1546085017.55,32594,0.0,0.0,-8.61,-9.01,-9.01,0,*56
1546085018.76,32595,0.0,0.0,-8.59,-9.01,-9.01,0,*5C
1546085019.99,32596,0.0,0.0,-8.61,-9.05,-9.01,0,*50
1546085021.25,32597,0.0,0.0,-8.61,-9.15,-9.01,0,*50
1546085022.49,32598,0.0,0.0,-8.61,-9.05,-9.01,0,*5E
1546085023.72,32599,0.0,0.0,-8.61,-9.01,-9.05,0,*5F
1546085024.96,32600,0.0,0.0,-8.61,-9.01,-9.01,0,*58
1546085026.16,32601,0.0,0.0,-8.59,-9.01,-9.01,0,*52
1546085027.39,32602,0.0,0.0,-8.61,-9.05,-9.05,0,*5A
1546085028.62,32603,0.0,0.0,-8.61,-9.05,-9.05,0,*5B
1546085029.86,32604,0.0,0.0,-8.61,-9.05,-9.01,0,*58
1546085031.06,32605,0.0,0.0,-8.59,-9.01,-8.97,0,*58
1546085032.3,32606,0.0,0.0,-8.61,-9.01,-9.01,0,*5E
1546085033.49,32607,0.0,0.0,-8.59,-8.97,-9.01,0,*5A
1546085034.73,32608,0.0,0.0,-8.61,-9.05,-9.01,0,*54
1546085035.99,32609,0.0,0.0,-8.61,-9.15,-9.01,0,*54
1546085037.19,32610,0.0,0.0,-8.59,-8.97,-9.01,0,*5C
1546085038.42,32611,0.0,0.0,-8.61,-9.05,-9.01,0,*5C
1546085039.62,32612,0.0,0.0,-8.59,-9.01,-8.97,0,*5E
1546085040.85,32613,0.0,0.0,-8.61,-9.01,-9.05,0,*5E
1546085042.09,32614,0.0,0.0,-8.61,-9.05,-9.01,0,*59
1546085043.31,32615,0.0,0.0,-8.59,-8.97,-9.11,0,*58
1546085044.54,32616,0.0,0.0,-8.61,-9.01,-9.05,0,*5B
1546085045.74,32617,0.0,0.0,-8.59,-9.01,-9.01,0,*55
1546085046.94,32618,0.0,0.0,-8.59,-9.01,-8.97,0,*54
1546085048.14,32619,0.0,0.0,-8.59,-9.05,-9.05,0,*5B
1546085049.37,32620,0.0,0.0,-8.61,-9.01,-9.05,0,*5E
1546085050.58,32621,0.0,0.0,-8.59,-9.01,-9.01,0,*50
1546085051.77,32622,0.0,0.0,-8.59,-8.97,-8.97,0,*53
1546085052.96,32623,0.0,0.0,-8.59,-8.97,-8.97,0,*52
1546085054.16,32624,0.0,0.0,-8.59,-9.01,-8.97,0,*5B
1546085055.37,32625,0.0,0.0,-8.59,-9.01,-9.01,0,*54
1546085056.57,32626,0.0,0.0,-8.59,-9.01,-9.01,0,*57
1546085057.77,32627,0.0,0.0,-8.59,-9.01,-8.97,0,*58
1546085058.97,32628,0.0,0.0,-8.59,-9.01,-8.97,0,*57
1546085060.2,32629,0.0,0.0,-8.61,-9.05,-9.01,0,*57
1546085061.43,32630,0.0,0.0,-8.61,-9.05,-9.05,0,*5B
1546085062.64,32631,0.0,0.0,-8.59,-9.01,-9.01,0,*51
1546085063.83,32632,0.0,0.0,-8.59,-8.97,-9.01,0,*5C
1546085065.03,32633,0.0,0.0,-8.59,-9.01,-8.97,0,*5D
1546085066.23,32634,0.0,0.0,-8.59,-9.01,-8.97,0,*5A
1546085067.43,32635,0.0,0.0,-8.59,-9.01,-8.97,0,*5B
1546085068.66,32636,0.0,0.0,-8.61,-9.05,-9.05,0,*5D
1546085069.86,32637,0.0,0.0,-8.59,-9.01,-8.97,0,*59
1546085071.07,32638,0.0,0.0,-8.55,-9.01,-9.01,0,*54
1546085072.27,32639,0.0,0.0,-8.55,-9.01,-8.97,0,*5B
1546085073.47,32640,0.0,0.0,-8.55,-8.97,-9.01,0,*55
1546085074.68,32641,0.0,0.0,-8.55,-9.01,-9.01,0,*5A
1546085075.88,32642,0.0,0.0,-8.55,-8.97,-9.01,0,*57
1546085077.07,32643,0.0,0.0,-8.55,-8.97,-8.97,0,*58
1546085078.28,32644,0.0,0.0,-8.55,-9.01,-8.97,0,*51
1546085079.47,32645,0.0,0.0,-8.59,-8.97,-9.01,0,*5C
1546085080.67,32646,0.0,0.0,-8.59,-9.01,-8.97,0,*5F
1546085081.88,32647,0.0,0.0,-8.55,-9.01,-9.01,0,*5C
1546085083.09,32648,0.0,0.0,-8.55,-9.01,-9.01,0,*53
1546085084.28,32649,0.0,0.0,-8.55,-8.97,-8.97,0,*52
1546085085.51,32650,0.0,0.0,-8.55,-9.11,-9.01,0,*5B
1546085086.72,32651,0.0,0.0,-8.55,-9.01,-9.01,0,*5B
1546085087.93,32652,0.0,0.0,-8.55,-9.01,-9.01,0,*58
1546085089.13,32653,0.0,0.0,-8.59,-9.01,-9.01,0,*55
1546085090.34,32654,0.0,0.0,-8.59,-9.01,-9.01,0,*52
1546085091.53,32655,0.0,0.0,-8.59,-8.97,-9.01,0,*5D
1546085092.74,32656,0.0,0.0,-8.55,-9.01,-9.01,0,*5C
1546085093.95,32657,0.0,0.0,-8.55,-9.01,-9.01,0,*5D
1546085095.15,32658,0.0,0.0,-8.55,-9.01,-9.01,0,*52
1546085096.35,32659,0.0,0.0,-8.55,-8.97,-9.01,0,*5D
1546085097.55,32660,0.0,0.0,-8.59,-8.97,-8.97,0,*55
1546085098.78,32661,0.0,0.0,-8.55,-9.11,-9.01,0,*59
1546085099.98,32662,0.0,0.0,-8.55,-9.01,-8.97,0,*55
1546085101.19,32663,0.0,0.0,-8.55,-9.01,-9.01,0,*5A
1546085102.39,32664,0.0,0.0,-8.55,-9.01,-8.97,0,*53
1546085103.6,32665,0.0,0.0,-8.55,-9.01,-9.01,0,*5C
1546085104.83,32666,0.0,0.0,-8.55,-9.11,-9.01,0,*5E
1546085106.05,32667,0.0,0.0,-8.51,-8.97,-8.97,0,*5A
1546085107.26,32668,0.0,0.0,-8.55,-9.01,-9.01,0,*51
1546085108.48,32669,0.0,0.0,-8.51,-8.97,-8.97,0,*54
1546085109.71,32670,0.0,0.0,-8.51,-8.97,-8.97,0,*5C
1546085110.91,32671,0.0,0.0,-8.55,-8.97,-9.01,0,*57
1546085112.13,32672,0.0,0.0,-8.51,-8.97,-8.97,0,*5E
1546085113.33,32673,0.0,0.0,-8.55,-9.01,-8.97,0,*55
1546085114.54,32674,0.0,0.0,-8.55,-9.01,-9.01,0,*5C
1546085115.76,32675,0.0,0.0,-8.51,-8.97,-8.97,0,*59
1546085116.99,32676,0.0,0.0,-8.51,-8.97,-8.97,0,*5A
1546085118.21,32677,0.0,0.0,-8.51,-8.97,-8.97,0,*5B
1546085119.44,32678,0.0,0.0,-8.51,-8.93,-8.97,0,*50
1546085120.64,32679,0.0,0.0,-8.55,-8.97,-8.97,0,*51
1546085121.86,32680,0.0,0.0,-8.51,-8.97,-8.93,0,*57
1546085123.09,32681,0.0,0.0,-8.51,-8.97,-8.93,0,*56
1546085124.31,32682,0.0,0.0,-8.51,-8.97,-8.93,0,*55
1546085125.54,32683,0.0,0.0,-8.51,-8.93,-8.93,0,*50
1546085126.74,32684,0.0,0.0,-8.55,-8.97,-8.97,0,*53
1546085127.93,32685,0.0,0.0,-8.55,-8.97,-8.97,0,*52
1546085129.16,32686,0.0,0.0,-8.51,-8.93,-8.97,0,*51
1546085130.39,32687,0.0,0.0,-8.51,-8.97,-8.97,0,*54
1546085131.59,32688,0.0,0.0,-8.55,-9.01,-9.01,0,*5F
1546085132.82,32689,0.0,0.0,-8.51,-8.93,-8.97,0,*5E
1546085134.05,32690,0.0,0.0,-8.51,-8.97,-8.93,0,*56
1546085135.27,32691,0.0,0.0,-8.51,-8.97,-8.93,0,*57
1546085136.5,32692,0.0,0.0,-8.51,-8.93,-8.93,0,*50
1546085137.73,32693,0.0,0.0,-8.51,-8.97,-8.97,0,*51
1546085138.96,32694,0.0,0.0,-8.51,-8.93,-8.93,0,*56
1546085140.19,32695,0.0,0.0,-8.51,-9.05,-8.93,0,*59
1546085141.41,32696,0.0,0.0,-8.51,-8.97,-8.97,0,*54
1546085142.64,32697,0.0,0.0,-8.51,-8.93,-8.93,0,*55
1546085143.86,32698,0.0,0.0,-8.51,-8.97,-8.97,0,*5A
1546085145.09,32699,0.0,0.0,-8.51,-8.97,-8.97,0,*5B
1546085146.31,32700,0.0,0.0,-8.51,-8.97,-8.93,0,*5E
1546085147.54,32701,0.0,0.0,-8.51,-8.93,-8.97,0,*5F
1546085148.77,32702,0.0,0.0,-8.51,-8.93,-8.93,0,*58
1546085149.97,32703,0.0,0.0,-8.55,-8.97,-8.97,0,*5D
1546085151.2,32704,0.0,0.0,-8.51,-8.93,-8.93,0,*5E
1546085152.42,32705,0.0,0.0,-8.51,-8.97,-8.97,0,*5F
1546085153.65,32706,0.0,0.0,-8.51,-8.97,-8.97,0,*5C
1546085154.88,32707,0.0,0.0,-8.51,-8.93,-8.97,0,*59
1546085156.1,32708,0.0,0.0,-8.51,-8.97,-8.97,0,*52
1546085157.33,32709,0.0,0.0,-8.51,-8.97,-8.93,0,*57
1546085158.53,32710,0.0,0.0,-8.49,-8.93,-8.93,0,*52
1546085159.73,32711,0.0,0.0,-8.49,-8.93,-8.93,0,*53
1546085160.94,32712,0.0,0.0,-8.49,-8.89,-8.89,0,*50
1546085162.15,32713,0.0,0.0,-8.49,-8.89,-8.93,0,*5A
1546085163.37,32714,0.0,0.0,-8.51,-8.97,-8.93,0,*5B
1546085164.58,32715,0.0,0.0,-8.49,-8.93,-8.93,0,*57
1546085165.8,32716,0.0,0.0,-8.51,-8.97,-8.97,0,*5D
1546085167.02,32717,0.0,0.0,-8.51,-8.97,-8.97,0,*5C
1546085168.25,32718,0.0,0.0,-8.51,-8.93,-8.97,0,*57
1546085169.48,32719,0.0,0.0,-8.51,-8.97,-8.97,0,*52
1546085170.68,32720,0.0,0.0,-8.49,-9.01,-8.93,0,*5B
1546085171.89,32721,0.0,0.0,-8.49,-8.93,-8.89,0,*5B
1546085173.09,32722,0.0,0.0,-8.49,-8.93,-8.93,0,*53
1546085174.3,32723,0.0,0.0,-8.49,-8.93,-8.89,0,*59
1546085175.51,32724,0.0,0.0,-8.49,-9.01,-8.89,0,*54
1546085176.71,32725,0.0,0.0,-8.49,-8.93,-8.75,0,*5C
1546085177.92,32726,0.0,0.0,-8.49,-8.93,-8.89,0,*5C
1546085179.12,32727,0.0,0.0,-8.49,-8.93,-8.89,0,*5D
1546085180.33,32728,0.0,0.0,-8.49,-9.01,-8.89,0,*58
1546085181.54,32729,0.0,0.0,-8.49,-8.93,-8.93,0,*58
1546085182.74,32730,0.0,0.0,-8.49,-8.89,-8.93,0,*5B
1546085183.97,32731,0.0,0.0,-8.47,-8.93,-8.93,0,*5F
1546085185.18,32732,0.0,0.0,-8.49,-8.89,-8.89,0,*52
1546085186.41,32733,0.0,0.0,-8.47,-8.93,-8.93,0,*5D
1546085187.62,32734,0.0,0.0,-8.49,-8.93,-8.93,0,*54
1546085188.85,32735,0.0,0.0,-8.47,-8.93,-8.89,0,*50
1546085190.06,32736,0.0,0.0,-8.49,-8.89,-8.93,0,*5D
1546085191.29,32737,0.0,0.0,-8.47,-8.93,-8.93,0,*59
1546085192.52,32738,0.0,0.0,-8.47,-8.93,-8.93,0,*56
1546085193.73,32739,0.0,0.0,-8.49,-8.93,-8.89,0,*52
1546085194.96,32740,0.0,0.0,-8.47,-8.93,-8.93,0,*59
1546085196.16,32741,0.0,0.0,-8.49,-8.93,-8.89,0,*5D
1546085197.37,32742,0.0,0.0,-8.49,-8.93,-8.93,0,*55
1546085198.57,32743,0.0,0.0,-8.49,-8.93,-8.93,0,*54
1546085199.8,32744,0.0,0.0,-8.47,-8.93,-8.93,0,*5D
1546085201.01,32745,0.0,0.0,-8.49,-8.89,-8.93,0,*59
1546085202.22,32746,0.0,0.0,-8.49,-8.93,-9.01,0,*5B
1546085203.42,32747,0.0,0.0,-8.49,-8.89,-8.93,0,*5B
1546085204.66,32748,0.0,0.0,-8.47,-8.93,-8.89,0,*5A
1546085205.86,32749,0.0,0.0,-8.49,-8.93,-8.93,0,*5E
1546085207.07,32750,0.0,0.0,-8.49,-8.89,-8.89,0,*56
1546085208.3,32751,0.0,0.0,-8.47,-8.89,-8.89,0,*59
1546085209.53,32752,0.0,0.0,-8.47,-8.89,-8.93,0,*51
1546085210.77,32753,0.0,0.0,-8.47,-8.89,-8.89,0,*5B
1546085212.0,32754,0.0,0.0,-8.47,-8.89,-8.93,0,*57
1546085213.23,32755,0.0,0.0,-8.47,-8.93,-8.89,0,*56
1546085214.47,32756,0.0,0.0,-8.47,-8.93,-8.89,0,*55
1546085215.7,32757,0.0,0.0,-8.47,-8.89,-8.89,0,*5F
1546085216.93,32758,0.0,0.0,-8.47,-8.93,-8.93,0,*50
1546085218.14,32759,0.0,0.0,-8.49,-9.01,-8.89,0,*5E
1546085219.38,32760,0.0,0.0,-8.47,-8.89,-8.89,0,*5B
1546085220.61,32761,0.0,0.0,-8.47,-8.89,-8.93,0,*51
1546085221.84,32762,0.0,0.0,-8.47,-8.93,-8.93,0,*59
1546085223.07,32763,0.0,0.0,-8.47,-8.93,-8.93,0,*58
1546085224.3,32764,0.0,0.0,-8.47,-8.93,-8.93,0,*5F
1546085225.53,32765,0.0,0.0,-8.47,-8.93,-8.93,0,*5E
1546085226.76,32766,0.0,0.0,-8.47,-8.89,-8.89,0,*5D
1546085228.0,32767,0.0,0.0,-8.47,-8.93,-8.89,0,*57
1546085229.23,32768,0.0,0.0,-8.47,-8.93,-8.93,0,*53
1546085230.46,32769,0.0,0.0,-8.47,-8.93,-8.93,0,*52
1546085231.67,32770,0.0,0.0,-8.49,-8.93,-8.89,0,*5F
1546085232.9,32771,0.0,0.0,-8.47,-8.93,-8.93,0,*5B
1546085234.1,32772,0.0,0.0,-8.49,-8.89,-8.93,0,*5D
1546085235.33,32773,0.0,0.0,-8.47,-8.93,-8.93,0,*59
1546085236.57,32774,0.0,0.0,-8.47,-8.93,-8.89,0,*55
1546085237.8,32775,0.0,0.0,-8.47,-8.89,-8.89,0,*5F
1546085239.03,32776,0.0,0.0,-8.47,-8.93,-8.93,0,*5C
1546085240.27,32777,0.0,0.0,-8.47,-8.93,-8.89,0,*56
1546085241.5,32778,0.0,0.0,-8.47,-8.93,-8.89,0,*59
1546085242.73,32779,0.0,0.0,-8.47,-8.93,-8.93,0,*53
1546085243.97,32780,0.0,0.0,-8.47,-8.93,-8.89,0,*5E
1546085245.2,32781,0.0,0.0,-8.47,-8.93,-8.89,0,*5F
1546085246.44,32782,0.0,0.0,-8.47,-8.89,-8.89,0,*57
1546085247.65,32783,0.0,0.0,-8.45,-8.85,-8.89,0,*58
1546085248.88,32784,0.0,0.0,-8.47,-8.93,-8.93,0,*51
1546085250.11,32785,0.0,0.0,-8.47,-9.01,-8.89,0,*51
1546085251.35,32786,0.0,0.0,-8.47,-8.89,-8.89,0,*53
1546085252.58,32787,0.0,0.0,-8.47,-8.93,-8.93,0,*52
1546085253.81,32788,0.0,0.0,-8.47,-8.93,-8.93,0,*5D
1546085255.04,32789,0.0,0.0,-8.47,-8.93,-8.93,0,*5C
1546085256.27,32790,0.0,0.0,-8.47,-8.93,-8.93,0,*54
1546085257.49,32791,0.0,0.0,-8.45,-8.89,-8.89,0,*57
1546085258.7,32792,0.0,0.0,-8.45,-8.89,-8.89,0,*54
1546085259.91,32793,0.0,0.0,-8.45,-8.85,-8.85,0,*55
1546085261.13,32794,0.0,0.0,-8.45,-8.89,-8.89,0,*52
1546085262.34,32795,0.0,0.0,-8.45,-8.89,-8.89,0,*53
1546085263.55,32796,0.0,0.0,-8.45,-8.97,-8.85,0,*53
1546085264.78,32797,0.0,0.0,-8.43,-8.89,-8.89,0,*57
1546085265.99,32798,0.0,0.0,-8.45,-8.89,-8.89,0,*5E
1546085267.21,32799,0.0,0.0,-8.45,-8.85,-8.89,0,*53
1546085268.44,32800,0.0,0.0,-8.43,-8.89,-8.85,0,*5A
1546085269.65,32801,0.0,0.0,-8.45,-8.85,-8.85,0,*51
1546085270.87,32802,0.0,0.0,-8.45,-8.89,-8.85,0,*5E
1546085272.08,32803,0.0,0.0,-8.45,-8.89,-8.89,0,*53
1546085273.29,32804,0.0,0.0,-8.45,-8.89,-8.89,0,*54
1546085274.51,32805,0.0,0.0,-8.45,-8.89,-8.89,0,*55
1546085275.74,32806,0.0,0.0,-8.43,-8.89,-8.89,0,*50
1546085276.95,32807,0.0,0.0,-8.45,-8.89,-8.85,0,*5B
1546085278.18,32808,0.0,0.0,-8.43,-8.89,-8.89,0,*5E
1546085279.4,32809,0.0,0.0,-8.45,-8.89,-8.85,0,*55
1546085280.61,32810,0.0,0.0,-8.45,-8.85,-8.89,0,*5D
1546085281.82,32811,0.0,0.0,-8.45,-8.85,-8.89,0,*5C
1546085283.04,32812,0.0,0.0,-8.45,-8.89,-8.89,0,*53
1546085284.25,32813,0.0,0.0,-8.45,-8.89,-8.85,0,*5E
1546085285.47,32814,0.0,0.0,-8.45,-8.89,-8.89,0,*55
1546085286.67,32815,0.0,0.0,-8.45,-8.97,-8.89,0,*5B
1546085287.9,32816,0.0,0.0,-8.43,-8.89,-8.89,0,*51
1546085289.12,32817,0.0,0.0,-8.45,-8.89,-8.85,0,*5A
1546085290.35,32818,0.0,0.0,-8.43,-8.89,-8.89,0,*5F
1546085291.58,32819,0.0,0.0,-8.43,-8.89,-8.89,0,*5E
1546085292.79,32820,0.0,0.0,-8.45,-8.89,-8.89,0,*52
1546085294.02,32821,0.0,0.0,-8.43,-8.85,-8.85,0,*55
1546085295.25,32822,0.0,0.0,-8.43,-8.89,-8.85,0,*5A
1546085296.49,32823,0.0,0.0,-8.43,-8.89,-8.85,0,*5B
1546085297.72,32824,0.0,0.0,-8.43,-8.89,-8.85,0,*5C
1546085298.93,32825,0.0,0.0,-8.45,-8.85,-8.89,0,*5B
1546085300.14,32826,0.0,0.0,-8.45,-8.89,-8.89,0,*54
1546085301.37,32827,0.0,0.0,-8.43,-8.89,-8.85,0,*5F
1546085302.59,32828,0.0,0.0,-8.45,-8.89,-8.85,0,*56
1546085303.82,32829,0.0,0.0,-8.43,-8.89,-8.89,0,*5D
1546085305.03,32830,0.0,0.0,-8.45,-8.85,-8.89,0,*5F
1546085306.25,32831,0.0,0.0,-8.45,-8.89,-8.89,0,*52
1546085307.48,32832,0.0,0.0,-8.43,-8.89,-8.89,0,*57
1546085308.71,32833,0.0,0.0,-8.43,-8.89,-8.89,0,*56
1546085309.92,32834,0.0,0.0,-8.45,-8.89,-8.89,0,*57
1546085311.13,32835,0.0,0.0,-8.45,-8.85,-8.85,0,*56
1546085312.36,32836,0.0,0.0,-8.43,-8.89,-8.89,0,*53
1546085313.58,32837,0.0,0.0,-8.45,-8.89,-8.85,0,*58
1546085314.81,32838,0.0,0.0,-8.43,-8.89,-8.89,0,*5D
1546085316.02,32839,0.0,0.0,-8.45,-8.97,-8.89,0,*55
1546085317.22,32840,0.0,0.0,-8.45,-8.97,-8.89,0,*5B
1546085318.45,32841,0.0,0.0,-8.43,-8.89,-8.89,0,*53
1546085319.67,32842,0.0,0.0,-8.45,-8.85,-8.85,0,*56
1546085320.88,32843,0.0,0.0,-8.45,-8.85,-8.89,0,*5B
1546085322.11,32844,0.0,0.0,-8.43,-8.85,-8.89,0,*5A
1546085323.34,32845,0.0,0.0,-8.43,-8.89,-8.89,0,*57
1546085324.57,32846,0.0,0.0,-8.43,-8.85,-8.89,0,*58
1546085325.81,32847,0.0,0.0,-8.43,-8.85,-8.89,0,*59
1546085327.02,32848,0.0,0.0,-8.45,-8.85,-8.97,0,*5F
1546085328.25,32849,0.0,0.0,-8.43,-8.89,-8.89,0,*5B
1546085329.48,32850,0.0,0.0,-8.43,-8.85,-8.85,0,*53
1546085330.71,32851,0.0,0.0,-8.43,-8.85,-8.89,0,*5E
1546085331.94,32852,0.0,0.0,-8.43,-8.89,-8.85,0,*5D
1546085333.16,32853,0.0,0.0,-8.43,-8.97,-8.89,0,*5F
1546085334.39,32854,0.0,0.0,-8.43,-8.89,-8.85,0,*5B
1546085335.62,32855,0.0,0.0,-8.41,-8.85,-8.81,0,*50
1546085336.84,32856,0.0,0.0,-8.41,-8.81,-8.85,0,*53
1546085338.05,32857,0.0,0.0,-8.41,-8.85,-8.85,0,*56
1546085339.28,32858,0.0,0.0,-8.43,-8.85,-8.89,0,*57
1546085340.51,32859,0.0,0.0,-8.43,-8.89,-8.89,0,*5A
1546085341.74,32860,0.0,0.0,-8.43,-8.89,-8.89,0,*50
1546085342.96,32861,0.0,0.0,-8.43,-8.89,-8.97,0,*5E
1546085344.19,32862,0.0,0.0,-8.43,-8.89,-8.97,0,*5D
1546085345.42,32863,0.0,0.0,-8.43,-8.89,-8.89,0,*53
1546085346.65,32864,0.0,0.0,-8.43,-8.89,-8.89,0,*54
1546085347.88,32865,0.0,0.0,-8.43,-8.89,-8.89,0,*55
1546085349.09,32866,0.0,0.0,-8.41,-8.85,-8.85,0,*54
1546085350.3,32867,0.0,0.0,-8.41,-8.85,-8.85,0,*55
1546085351.51,32868,0.0,0.0,-8.41,-8.85,-8.85,0,*5A
1546085352.71,32869,0.0,0.0,-8.41,-8.85,-8.85,0,*5B
1546085353.94,32870,0.0,0.0,-8.43,-8.89,-8.85,0,*5D
1546085355.17,32871,0.0,0.0,-8.41,-8.85,-8.81,0,*56
1546085356.4,32872,0.0,0.0,-8.43,-8.85,-8.89,0,*5F
1546085357.63,32873,0.0,0.0,-8.43,-8.89,-8.89,0,*52
1546085358.86,32874,0.0,0.0,-8.43,-8.89,-8.89,0,*55
1546085360.07,32875,0.0,0.0,-8.41,-8.85,-8.85,0,*56
1546085361.27,32876,0.0,0.0,-8.41,-8.85,-8.85,0,*55
1546085362.48,32877,0.0,0.0,-8.41,-8.85,-8.85,0,*54
1546085363.71,32878,0.0,0.0,-8.41,-8.81,-8.85,0,*5F
1546085364.93,32879,0.0,0.0,-8.41,-8.85,-8.81,0,*5E
1546085366.15,32880,0.0,0.0,-8.41,-8.85,-8.81,0,*58
1546085367.36,32881,0.0,0.0,-8.41,-8.85,-8.85,0,*5D